Regional Weather Roundup
Issued by NWS Bismarck, ND

Home | Current Version | Previous Version | Text Only | Print | Product List | Glossary On
Versions: 1 2 3 4 5 6 7 8 9 10 11 12 13 14 15 16 17 18 19 20 21 22 23 24 25 26 27 28 29 30 31 32 33 34 35 36 37 38 39 40 41 42 43 44 45 46 47 48 49 50
000
ASUS43 KBIS 040602
RWRBIS

NWR BROADCAST TEXT
NATIONAL WEATHER SERVICE BISMARCK ND
100 AM CDT TUE AUG 04 2015

NOTE: "FAIR" INDICATES FEW OR NO CLOUDS BELOW 12,000 FEET WITH NO
SIGNIFICANT WEATHER AND/OR OBSTRUCTIONS TO VISIBILITY.


CITY           SKY/WX    TMP DP  RH WIND       PRES   REMARKS
WILLISTON      CLEAR     66  51  58 E6        29.97S
MINOT          CLEAR     60  49  66 CALM      29.97S
MINOT AFB      CLEAR     57  52  82 CALM      29.97R
BISMARCK       CLEAR     55  51  86 E3        29.99R
DICKINSON      PTCLDY    57  49  74 E9        29.98S
GARRISON         N/A     61  52  72 CALM      29.98S
HETTINGER ARPT PTCLDY    64  51  62 E8        29.99F
JAMESTOWN      CLEAR     56  51  84 CALM      29.98S
HAZEN          FAIR      52  48  87 CALM      29.99S
OAKES            N/A     55  55 100 CALM      29.98S
STANLEY        FAIR      55  54  94 CALM      30.00S
$$

CITY           SKY/WX    TMP DP  RH WIND       PRES   REMARKS
GRAND FORKS    CLEAR     54  50  86 N3        29.93R
GRAND FORKS AF CLEAR     53  49  85 NW6       29.94R
DEVILS LAKE    CLEAR     61  52  72 SW3       29.96S
FARGO          CLEAR     56  49  77 SW6       29.95S
CAVALIER       FAIR      55  50  82 W6        29.95R
GRAFTON        FAIR      59  54  82 NW3       29.95S
GWINNER          N/A     55  52  88 SW3       29.98S
LANGDON        FAIR      48  46  93 CALM      29.98S
$$

CITY           SKY/WX    TMP DP  RH WIND       PRES   REMARKS
ABERDEEN       CLEAR     60  53  77 CALM      29.97S
MOBRIDGE       PTCLDY    66  54  65 E10       29.95R
BUFFALO          N/A     68  53  58 E10       29.91F
RAPID CITY     CLOUDY    68  59  73 CALM      29.97F
GLASGOW        CLEAR     69  45  41 E15       29.89S
SIDNEY         PTCLDY   N/A N/A N/A N3        29.94S
WOLF POINT     CLEAR     63  47  55 NE7       29.93S
GLENDIVE         N/A    N/A N/A N/A MISG        N/A
MILES CITY     PTCLDY    76  51  41 E8        29.89F
BAKER          MOCLDY    65  51  60 E7        29.97S
$$

CITY           SKY/WX    TMP DP  RH WIND       PRES   REMARKS
BILLINGS       MOCLDY    77  46  33 SW12      29.89S
GREAT FALLS    MOCLDY    75  45  34 S12       29.82S
$$




USA.gov is the U.S. government's official web portal to all federal, state and local government web resources and services.